Date,TemperatureHighF,TemperatureAvgF,TemperatureLowF,DewpointHighF,DewpointAvgF,DewpointLowF,HumidityHigh,HumidityAvg,HumidityLow,PressureMaxIn,PressureMinIn,WindSpeedMaxMPH,WindSpeedAvgMPH,GustSpeedMaxMPH,PrecipitationSumIn
2013-9-21,86.0,73.1,61.7,69.2,58.5,40.6,99,66,23,29.75,29.65,17,7,18,0.01
2013-9-22,87.3,70.8,57.4,56.6,50.5,42.5,80,53,22,29.73,29.60,9,2,12,0.00
2013-9-23,91.4,72.8,54.7,58.7,51.7,43.3,92,54,20,29.67,29.57,14,2,14,0.00
2013-9-24,96.6,79.2,62.1,62.8,59.1,54.4,85,54,28,29.75,29.65,11,2,11,0.00
2013-9-25,96.4,80.4,63.7,64.4,59.9,57.3,87,54,30,29.73,29.59,10,2,12,0.00
2013-9-26,91.9,80.9,69.4,73.1,59.6,49.3,82,50,26,29.72,29.63,16,6,18,0.00
2013-9-27,90.5,79.8,74.7,77.1,73.7,70.8,94,82,55,29.74,29.64,17,7,17,0.07
2013-9-28,90.7,79.4,73.0,78.0,74.7,70.3,98,86,52,29.82,29.69,15,6,17,0.32
2013-9-29,78.8,68.5,63.5,71.1,64.9,62.5,99,89,59,29.88,29.74,14,4,14,0.11
2013-9-30,90.7,74.1,58.6,67.6,58.0,45.6,99,64,22,29.77,29.62,8,2,8,0.00
2013-10-1,90.7,77.3,68.4,74.2,66.6,55.7,99,73,39,29.75,29.65,14,5,14,0.00
2013-10-2,91.8,79.9,73.9,76.9,71.9,66.0,95,79,45,29.78,29.67,16,6,16,0.06
2013-10-3,92.3,81.2,73.9,75.2,70.5,64.7,97,73,42,29.75,29.64,15,6,15,0.00
2013-10-4,90.9,80.2,72.7,72.7,69.9,65.5,95,73,45,29.73,29.65,22,8,22,0.00
2013-10-5,88.9,73.6,60.3,73.5,61.9,38.7,97,69,43,29.89,29.68,20,7,20,0.00
2013-10-6,81.1,65.2,51.3,53.3,40.6,18.8,94,50,10,29.95,29.85,19,4,19,0.25
2013-10-7,88.2,66.7,47.1,49.2,40.1,25.6,82,45,11,29.97,29.85,10,1,10,0.00
2013-10-8,86.2,68.6,50.4,52.0,46.3,39.2,87,50,23,29.91,29.78,19,3,19,0.00
2013-10-9,84.2,70.7,55.2,61.4,55.3,47.7,94,61,35,29.87,29.76,16,5,16,0.00
2013-10-10,85.5,72.9,60.6,67.1,62.7,58.4,98,73,45,29.85,29.69,19,5,19,0.00
2013-10-11,89.1,77.4,70.3,75.0,70.5,66.0,95,81,51,29.76,29.65,16,7,16,0.04
2013-10-12,92.5,80.2,72.3,75.9,72.4,68.1,98,79,46,29.85,29.72,17,5,17,0.01
2013-10-13,77.0,70.4,66.2,73.5,68.9,65.9,99,95,83,29.98,29.83,15,5,15,1.58
2013-10-14,78.3,73.3,70.5,74.9,71.4,70.0,98,94,84,29.91,29.74,14,5,14,0.19
2013-10-15,82.6,71.8,56.5,72.6,67.7,54.3,98,88,65,29.83,29.69,17,6,17,0.00
2013-10-16,61.0,56.2,52.2,58.1,54.9,51.6,99,95,86,29.88,29.78,14,6,14,0.86
2013-10-17,77.2,60.9,48.6,56.5,49.3,44.6,96,70,33,29.94,29.79,9,2,9,0.00
2013-10-18,70.9,63.5,54.1,63.7,57.2,50.5,92,80,68,29.83,29.69,12,3,13,0.04
2013-10-19,69.3,55.2,44.4,62.0,43.0,35.3,94,68,30,30.01,29.83,23,6,23,0.00
2013-10-20,74.8,57.4,42.3,73.0,55.5,40.1,94,93,87,29.90,29.71,16,3,16,0.00
2013-10-21,81.3,67.3,58.6,67.8,60.6,54.3,94,80,58,29.88,29.58,20,4,20,0.00
2013-10-22,78.3,62.2,49.8,55.6,43.9,33.2,87,58,21,29.97,29.88,13,5,13,0.00
2013-10-23,83.8,65.8,49.3,49.6,41.8,25.4,79,48,13,29.97,29.88,12,3,12,0.00
2013-10-24,84.6,68.0,57.0,48.0,43.7,39.8,61,44,23,30.03,29.92,12,4,12,0.00
2013-10-25,89.2,72.8,66.4,60.0,58.3,42.8,79,61,49,30.12,29.80,15,5,15,0.00
2013-10-26,80.1,69.8,62.2,65.1,62.0,58.9,93,77,54,29.82,29.65,18,6,18,0.00
2013-10-27,75.6,66.7,62.8,66.7,63.2,60.3,99,89,65,29.72,29.62,12,3,12,0.22
2013-10-28,81.1,71.3,63.7,69.1,66.0,62.8,99,85,58,29.69,29.58,19,8,19,0.00
2013-10-29,84.0,74.8,69.6,71.3,68.3,66.0,93,81,56,29.67,29.58,20,9,20,0.00
2013-10-30,82.8,75.2,71.8,75.6,72.0,68.3,99,90,72,29.64,29.42,17,6,17,0.97
2013-10-31,81.0,69.9,52.7,72.7,52.9,21.0,99,66,11,29.50,29.35,19,5,19,0.17
2013-11-1,84.6,64.6,48.7,55.0,42.3,19.1,83,51,11,29.69,29.43,19,5,19,0.00
2013-11-2,73.8,60.0,46.4,44.8,36.6,13.2,82,48,10,29.90,29.69,15,4,15,0.00
2013-11-3,69.6,56.3,41.2,52.5,39.3,30.8,89,58,24,29.83,29.59,18,4,18,0.00
2013-11-4,64.8,61.3,58.1,62.8,58.9,52.3,97,92,77,29.66,29.56,17,4,17,0.07
2013-11-5,79.5,70.0,63.3,69.6,66.5,62.5,99,89,64,29.62,29.50,17,6,17,0.00
2013-11-6,70.9,58.1,47.8,69.4,53.7,41.6,99,86,59,29.94,29.58,21,6,21,0.73
2013-11-7,66.0,51.7,38.7,43.7,38.3,29.4,92,64,28,30.06,29.93,14,3,14,0.00
2013-11-8,65.7,55.4,47.1,45.6,40.2,29.4,85,60,29,29.99,29.75,13,2,13,0.00
2013-11-9,66.7,60.3,54.5,57.1,51.8,42.8,82,74,62,29.78,29.69,12,4,12,0.00
2013-11-10,75.2,62.7,57.2,58.3,55.2,49.6,95,78,54,29.91,29.77,8,2,8,0.00
2013-11-11,79.0,61.9,47.1,55.7,51.3,45.8,97,71,41,29.87,29.76,8,1,8,0.00
2013-11-12,59.2,50.8,38.8,55.3,41.9,21.9,98,74,43,30.22,29.85,22,7,22,0.02
2013-11-13,58.8,41.8,30.0,27.0,23.3,18.7,71,51,23,30.23,29.96,11,3,11,0.00
2013-11-14,62.4,48.7,32.9,50.4,32.7,19.1,82,57,21,29.97,29.62,18,4,18,0.00
2013-11-15,79.3,63.9,49.8,60.3,55.0,49.5,99,75,45,29.63,29.45,14,5,14,0.00
2013-11-16,81.0,71.1,63.0,70.2,65.6,59.9,96,83,59,29.50,29.34,24,9,24,0.01
2013-11-17,91.2,76.1,63.1,71.5,63.8,52.2,98,70,28,29.56,29.37,18,5,18,0.00
2013-11-18,78.4,65.5,56.5,62.5,51.5,45.2,90,62,44,29.72,29.55,11,4,11,0.00
2013-11-19,73.8,61.8,51.6,50.1,43.8,38.1,75,54,30,29.75,29.59,13,4,13,0.00
2013-11-20,71.4,62.6,56.7,64.7,55.1,43.9,99,77,59,29.62,29.50,14,6,14,0.00
2013-11-21,79.2,72.0,65.1,72.2,68.9,64.6,99,90,73,29.67,29.52,34,5,34,1.61
2013-11-22,70.5,38.7,32.7,70.0,38.1,32.0,99,98,94,29.97,29.65,24,11,24,1.26
2013-11-23,40.3,36.4,33.4,39.1,35.8,33.2,99,98,91,30.05,29.95,19,9,19,0.09
2013-11-24,40.3,36.1,32.2,37.9,31.5,26.6,96,83,65,30.07,29.88,21,6,21,0.09
2013-11-25,38.1,35.3,32.2,37.7,34.5,31.4,99,97,89,29.91,29.67,17,4,17,0.46
2013-11-26,52.9,41.1,35.6,37.3,32.1,27.3,91,72,40,29.93,29.70,22,9,22,0.05
2013-11-27,53.2,39.2,28.6,28.5,21.8,10.9,77,54,19,30.06,29.92,17,4,17,0.00
2013-11-28,57.6,40.3,30.2,32.6,25.7,15.7,82,59,21,30.02,29.91,9,2,9,0.00
2013-11-29,64.4,48.0,30.7,47.8,39.3,25.0,96,73,48,30.08,29.92,13,2,13,0.00
2013-11-30,63.9,56.1,50.5,56.4,49.8,43.3,94,80,69,29.95,29.77,11,3,11,0.00
2013-12-1,72.3,62.8,54.7,59.8,57.0,53.9,99,82,59,29.78,29.52,17,6,17,0.00
2013-12-2,83.5,65.5,55.8,56.4,47.9,33.1,95,59,17,29.53,29.27,17,4,17,0.00
2013-12-3,84.9,66.5,52.0,49.8,42.1,23.5,78,46,12,29.31,29.20,13,4,13,0.00
2013-12-4,73.8,65.9,59.4,65.0,58.1,44.5,95,77,52,29.39,29.26,14,5,14,0.00
2013-12-5,65.3,41.5,29.1,65.0,35.0,21.4,99,78,56,29.69,29.37,21,9,21,0.00
2013-12-6,32.0,29.5,25.2,31.0,26.2,18.4,98,88,72,30.01,29.63,15,3,15,0.01
2013-12-7,27.1,24.5,22.5,21.5,18.1,15.5,89,76,69,30.04,29.85,0,0,0,0.00
2013-12-8,50.9,33.8,24.3,40.5,30.1,21.5,95,87,65,29.85,29.59,7,1,7,0.01
2013-12-9,37.0,34.3,31.3,36.3,33.7,29.2,99,97,92,29.96,29.62,16,6,16,0.06
2013-12-10,47.5,33.6,24.1,29.2,21.6,17.4,92,64,33,30.08,29.91,17,5,17,0.00
2013-12-11,59.7,41.4,25.9,32.7,26.4,19.3,83,59,27,30.13,29.89,9,2,9,0.00
2013-12-12,56.3,41.1,29.7,34.9,29.8,24.9,83,65,37,30.16,29.88,8,3,8,0.00
2013-12-13,49.5,44.6,41.9,49.2,41.0,33.2,99,88,69,29.88,29.47,14,4,14,0.35
2013-12-14,49.6,44.1,35.6,48.3,39.2,27.3,99,84,61,29.92,29.44,22,7,22,0.01
2013-12-15,62.8,45.3,32.5,33.4,28.9,23.2,75,56,22,29.97,29.84,8,2,8,0.00
2013-12-16,68.4,51.2,37.0,34.5,31.3,27.7,78,50,23,29.88,29.76,16,5,16,0.00
2013-12-17,75.9,55.0,42.1,39.2,33.3,17.0,72,49,12,29.89,29.81,10,3,10,0.00
2013-12-18,70.7,57.2,46.0,53.1,47.0,38.5,91,70,46,29.86,29.63,18,6,18,0.00
2013-12-19,75.4,64.2,54.7,63.8,58.2,50.8,94,82,57,29.63,29.39,24,10,24,0.01
2013-12-20,73.2,67.9,64.0,67.6,64.7,62.8,97,89,75,29.45,29.24,22,8,22,0.00
2013-12-21,71.1,51.6,40.5,67.2,45.2,37.1,99,82,47,29.41,29.17,14,4,16,0.57
2013-12-22,53.1,44.8,34.3,41.8,34.9,26.5,99,69,43,29.95,29.41,21,6,21,0.00
2013-12-23,59.0,40.1,27.1,30.1,25.8,20.6,87,61,23,30.10,29.94,10,3,10,0.00
2013-12-24,59.4,43.0,27.7,38.9,26.3,16.9,93,58,20,30.10,29.84,17,4,17,0.00
2013-12-25,62.8,47.8,36.1,47.9,41.6,34.7,99,81,57,29.98,29.82,12,3,12,0.00
2013-12-26,59.2,44.5,34.3,40.4,36.4,31.1,91,75,48,30.01,29.89,12,3,12,0.00
2013-12-27,58.6,47.2,39.2,42.7,39.1,36.5,93,75,47,30.02,29.89,8,1,8,0.00
2013-12-28,63.5,48.7,36.3,47.9,39.7,33.6,98,74,41,29.90,29.59,12,3,12,0.00
2013-12-29,60.3,45.5,30.9,53.0,42.2,28.9,99,89,68,29.87,29.54,18,6,18,0.00
2013-12-30,44.2,35.8,30.2,28.9,25.5,20.9,92,67,49,29.96,29.81,16,4,16,0.00
2013-12-31,58.8,41.8,32.0,32.4,27.3,22.6,82,60,26,30.04,29.81,9,2,9,0.00
2014-1-1,69.1,50.7,35.6,53.5,42.0,27.8,97,73,55,29.81,29.56,23,7,23,0.00
2014-1-2,52.5,39.5,28.2,46.0,23.0,14.7,82,54,23,30.02,29.71,22,7,22,0.00